Weather History for Galesburg, IL

Change the Weather History Date:

Thursday, January 17, 2013

  Actual Average Record
Temperature  
Mean Temperature 24 °F -  
Max Temperature 34 °F 28 °F 55 °F (1986)
Min Temperature 15 °F 12 °F -19 °F (1977)
Degree Days  
Heating Degree Days 40    
Moisture  
Dew Point 20 °F    
Average Humidity 74    
Maximum Humidity 94    
Minimum Humidity 53    
Precipitation  
Precipitation 0.00 in - - ()
Sea Level Pressure  
Sea Level Pressure 30.32 in    
Wind  
Wind Speed 8 mph (NW)    
Max Wind Speed 16 mph    
Max Gust Speed 21 mph    
Visibility 10 miles    
Events      
Averages and records for this station are not official NWS values.
T = Trace of Precipitation, MM = Missing Value Source: NWS Daily Summary

Daily Weather History Graph

Daily Weather History Graph

Search for Another Location

Airport:

Trip Planner

Search our weather history database for the weather conditions in past years. The results will help you decide how hot, cold, wet, or windy it might be!

Date:

Astronomy

Jan. 17, 2013 Rise Set
Actual Time 7:23 AM CST 5:01 PM CST
Civil Twilight 6:53 AM CST 5:31 PM CST
Nautical Twilight 6:19 AM CST 6:04 PM CST
Astronomical Twilight 5:46 AM CST 6:37 PM CST
Moon 10:26 AM CST (1/17) 11:56 PM CST (1/17)
Length of Visible Light 10h 38m
Length of Day
9h 37m
Waxing Crescent, 38% of the Moon is Illuminated
Jan 17
Waxing Crescent
Jan 18
First Quarter
Jan 26
Full
Feb 3
Last Quarter
Feb 10
New

Hourly Weather History & Observations

Time (CST) Temp. Windchill Dew Point Humidity Pressure Visibility Wind Dir Wind Speed Gust Speed Precip Events Conditions
12:15 AM 32.0 °F 26.4 °F 28.4 °F 87% 30.09 in 10.0 mi WNW 5.8 mph - N/A   Scattered Clouds
12:35 AM 30.9 °F 25.2 °F 27.9 °F 88% 30.11 in 10.0 mi WNW 5.8 mph - N/A   Clear
12:55 AM 32.4 °F 24.0 °F 30.6 °F 93% 30.12 in 10.0 mi NW 10.4 mph - N/A   Clear
1:15 AM 33.3 °F 25.7 °F 30.9 °F 91% 30.14 in 10.0 mi NNW 9.2 mph - N/A   Clear
1:35 AM 32.7 °F 25.0 °F 30.6 °F 92% 30.15 in 10.0 mi NNW 9.2 mph - N/A   Clear
1:55 AM 33.3 °F 26.4 °F 31.1 °F 92% 30.15 in 10.0 mi NW 8.1 mph - N/A   Mostly Cloudy
2:15 AM 34.0 °F 27.2 °F 31.5 °F 90% 30.16 in 10.0 mi NW 8.1 mph - N/A   Overcast
2:35 AM 34.0 °F 26.6 °F 31.5 °F 90% 30.16 in 10.0 mi NW 9.2 mph - N/A   Overcast
2:55 AM 33.6 °F 27.5 °F 30.9 °F 90% 30.18 in 10.0 mi NW 6.9 mph - N/A   Overcast
3:15 AM 33.8 °F 26.4 °F 30.2 °F 87% 30.19 in 10.0 mi NNW 9.2 mph - N/A   Overcast
3:35 AM 33.4 °F 24.3 °F 29.8 °F 87% 30.19 in 10.0 mi NNW 12.7 mph - N/A   Overcast
3:55 AM 32.7 °F 23.9 °F 28.9 °F 86% 30.20 in 10.0 mi NNW 11.5 mph - N/A   Overcast
4:15 AM 30.7 °F 21.4 °F 26.2 °F 83% 30.21 in 10.0 mi NNW 11.5 mph - N/A   Scattered Clouds
4:35 AM 28.8 °F 21.7 °F 24.8 °F 85% 30.23 in 10.0 mi NW 6.9 mph - N/A   Clear
4:55 AM 27.3 °F 19.9 °F 24.4 °F 89% 30.24 in 10.0 mi NW 6.9 mph - N/A   Clear
5:15 AM 26.6 °F 18.2 °F 23.5 °F 88% 30.24 in 10.0 mi NNW 8.1 mph - N/A   Clear
5:35 AM 26.1 °F 16.8 °F 21.7 °F 84% 30.26 in 10.0 mi NNW 9.2 mph - N/A   Clear
5:55 AM 25.0 °F 15.5 °F 21.2 °F 86% 30.27 in 10.0 mi NNW 9.2 mph - N/A   Clear
6:15 AM 24.6 °F 15.1 °F 21.0 °F 86% 30.28 in 10.0 mi NNW 9.2 mph - N/A   Clear
6:35 AM 24.1 °F 12.5 °F 20.1 °F 85% 30.29 in 10.0 mi NNW 12.7 mph - N/A   Clear
6:55 AM 23.0 °F 13.9 °F 19.4 °F 86% 30.31 in 10.0 mi NNW 8.1 mph - N/A   Clear
7:15 AM 22.5 °F 12.4 °F 18.5 °F 85% 30.31 in 10.0 mi NNW 9.2 mph - N/A   Clear
7:35 AM 22.1 °F 11.3 °F 16.7 °F 80% 30.32 in 10.0 mi NW 10.4 mph - N/A   Clear
7:55 AM 22.3 °F 12.2 °F 16.3 °F 78% 30.33 in 10.0 mi NW 9.2 mph - N/A   Clear
8:15 AM 22.8 °F 12.9 °F 14.9 °F 72% 30.33 in 10.0 mi NW 9.2 mph - N/A   Clear
8:35 AM 23.5 °F 16.4 °F 14.7 °F 69% 30.34 in 10.0 mi NW 5.8 mph - N/A   Clear
8:55 AM 24.4 °F 15.6 °F 14.9 °F 67% 30.35 in 10.0 mi NW 8.1 mph - N/A   Clear
9:15 AM 24.8 °F 14.6 °F 14.7 °F 66% 30.36 in 10.0 mi NW 10.4 mph - N/A   Clear
9:35 AM 25.5 °F 15.5 °F 14.2 °F 62% 30.37 in 10.0 mi NW 10.4 mph - N/A   Clear
9:55 AM 26.6 °F 16.2 °F 14.2 °F 60% 30.38 in 10.0 mi NW 11.5 mph - N/A   Clear
10:15 AM 26.8 °F 15.4 °F 12.4 °F 55% 30.39 in 10.0 mi NW 13.8 mph 18.4 mph N/A   Clear
10:35 AM 27.5 °F 15.9 °F 13.8 °F 56% 30.39 in 10.0 mi NW 15.0 mph 19.6 mph N/A   Clear
10:55 AM 27.7 °F 15.6 °F 14.5 °F 58% 30.39 in 10.0 mi NW 16.1 mph 20.7 mph N/A   Clear
11:15 AM 28.2 °F 16.8 °F 14.0 °F 55% 30.39 in 10.0 mi NNW 15.0 mph - N/A   Clear
11:35 AM 29.1 °F 20.6 °F 15.3 °F 56% 30.39 in 10.0 mi NNW 9.2 mph - N/A   Clear
11:55 AM 29.3 °F 18.6 °F 14.2 °F 53% 30.38 in 10.0 mi NW 13.8 mph - N/A   Clear
12:15 PM 29.8 °F 19.3 °F 14.4 °F 53% 30.38 in 10.0 mi NNW 13.8 mph 18.4 mph N/A   Clear
12:35 PM 30.2 °F 20.2 °F 14.9 °F 53% 30.37 in 10.0 mi NW 12.7 mph 18.4 mph N/A   Clear
12:55 PM 30.9 °F 21.2 °F 16.0 °F 54% 30.37 in 10.0 mi NW 12.7 mph - N/A   Clear
1:15 PM 31.5 °F 22.3 °F 16.7 °F 54% 30.37 in 10.0 mi NW 11.5 mph - N/A   Clear
1:35 PM 31.8 °F 21.8 °F 16.3 °F 53% 30.37 in 10.0 mi NNW 13.8 mph 17.3 mph N/A   Clear
1:55 PM 31.8 °F 23.3 °F 16.3 °F 53% 30.37 in 10.0 mi NW 10.4 mph 17.3 mph N/A   Clear
2:15 PM 32.0 °F 23.6 °F 16.9 °F 54% 30.37 in 10.0 mi NW 10.4 mph - N/A   Clear
2:35 PM 32.0 °F 24.2 °F 16.7 °F 53% 30.37 in 10.0 mi WNW 9.2 mph - N/A   Clear
2:55 PM 31.8 °F 23.9 °F 16.5 °F 53% 30.37 in 10.0 mi NW 9.2 mph - N/A   Scattered Clouds
3:15 PM 31.8 °F 23.9 °F 17.4 °F 55% 30.37 in 10.0 mi NW 9.2 mph - N/A   Overcast
3:35 PM 31.5 °F 23.5 °F 16.9 °F 55% 30.38 in 10.0 mi NW 9.2 mph - N/A   Overcast
3:55 PM 31.1 °F 23.1 °F 16.9 °F 56% 30.38 in 10.0 mi WNW 9.2 mph - N/A   Scattered Clouds
4:55 PM 28.0 °F 24.2 °F 18.0 °F 66% 30.38 in 10.0 mi West 3.5 mph - N/A   Clear
5:35 PM 25.5 °F 18.7 °F 17.6 °F 72% 30.39 in 10.0 mi West 5.8 mph - N/A   Clear
7:55 PM 22.6 °F 18.0 °F 16.3 °F 77% 30.42 in 10.0 mi West 3.5 mph - N/A   Clear
8:15 PM 22.8 °F 16.7 °F 16.7 °F 77% 30.42 in 10.0 mi West 4.6 mph - N/A   Clear
8:35 PM 23.0 °F - 15.8 °F 74% 30.42 in 10.0 mi Calm Calm - N/A   Clear
8:55 PM 22.5 °F 17.8 °F 16.3 °F 77% 30.42 in 10.0 mi West 3.5 mph - N/A   Clear
9:15 PM 22.5 °F - 16.2 °F 77% 30.42 in 10.0 mi Calm Calm - N/A   Clear
9:35 PM 18.1 °F - 15.8 °F 91% 30.42 in 10.0 mi Calm Calm - N/A   Clear
9:55 PM 19.9 °F - 15.1 °F 81% 30.41 in 10.0 mi Calm Calm - N/A   Clear
11:15 PM 17.8 °F 12.5 °F 14.9 °F 88% 30.42 in 10.0 mi SW 3.5 mph - N/A   Clear
11:35 PM 15.3 °F - 13.5 °F 93% 30.42 in 10.0 mi Calm Calm - N/A   Clear
11:55 PM 16.5 °F - 15.1 °F 94% 30.41 in 10.0 mi Calm Calm - N/A   Clear